<?xml version='1.0' encoding='UTF-8'?>
<gpx xmlns="http://www.topografix.com/GPX/1/1" creator="www.balnam.be" version="1.1" xmlns:xsi="http://www.w3.org/2001/XMLSchema-instance" xsi:schemaLocation="http://www.topografix.com/GPX/1/1 http://www.topografix.com/GPX/1/1/gpx.xsd">
<trk>
<name>hbnhc1</name>
<cmt>v</cmt>
<desc>Harchies Chemin n°1 </desc>
<link href="https://chemins.be/harchies/chemin/1"/><trkseg>
<trkpt lat="50.482044" lon="3.713439"><time>2026-05-02T17:17:25Z</time></trkpt>
<trkpt lat="50.484458" lon="3.707139"><time>2026-05-02T17:27:25Z</time></trkpt>
<trkpt lat="50.484676" lon="3.706006"><time>2026-05-02T17:37:25Z</time></trkpt>
<trkpt lat="50.484583" lon="3.705116"><time>2026-05-02T17:47:25Z</time></trkpt>
</trkseg></trk>
<trk>
<name>hbnhc1</name>
<cmt>s</cmt>
<desc>Harchies Chemin n°1 </desc>
<link href="https://chemins.be/harchies/chemin/1"/><trkseg>
<trkpt lat="50.484583" lon="3.705116"><time>2026-05-02T17:47:25Z</time></trkpt>
<trkpt lat="50.484174" lon="3.703723"><time>2026-05-02T17:57:25Z</time></trkpt>
</trkseg></trk>
<trk>
<name>hbnhc1</name>
<cmt>v</cmt>
<desc>Harchies Chemin n°1 </desc>
<link href="https://chemins.be/harchies/chemin/1"/><trkseg>
<trkpt lat="50.484174" lon="3.703723"><time>2026-05-02T17:57:25Z</time></trkpt>
<trkpt lat="50.484182" lon="3.701847"><time>2026-05-02T18:07:25Z</time></trkpt>
</trkseg>
</trk>
<trk>
<name>hbnhc12</name>
<cmt>r</cmt>
<desc>Harchies Chemin n°12 Rue de la Planche</desc>
<link href="https://chemins.be/harchies/chemin/12"/><trkseg>
<trkpt lat="50.479714" lon="3.688705"><time>2026-05-02T17:17:25Z</time></trkpt>
<trkpt lat="50.479507" lon="3.688349"><time>2026-05-02T17:27:25Z</time></trkpt>
<trkpt lat="50.479280" lon="3.687664"><time>2026-05-02T17:37:25Z</time></trkpt>
</trkseg></trk>
<trk>
<name>hbnhc12</name>
<cmt>v</cmt>
<desc>Harchies Chemin n°12 Rue de la Planche</desc>
<link href="https://chemins.be/harchies/chemin/12"/><trkseg>
<trkpt lat="50.479280" lon="3.687664"><time>2026-05-02T17:37:25Z</time></trkpt>
<trkpt lat="50.478952" lon="3.684960"><time>2026-05-02T17:47:25Z</time></trkpt>
<trkpt lat="50.478636" lon="3.683338"><time>2026-05-02T17:57:25Z</time></trkpt>
<trkpt lat="50.477358" lon="3.678394"><time>2026-05-02T18:07:25Z</time></trkpt>
<trkpt lat="50.477160" lon="3.677433"><time>2026-05-02T18:17:25Z</time></trkpt>
</trkseg>
</trk>
<trk>
<name>hbnhc13</name>
<cmt>r</cmt>
<desc>Harchies Chemin n°13 </desc>
<link href="https://chemins.be/harchies/chemin/13"/><trkseg>
<trkpt lat="50.472791" lon="3.668595"><time>2026-05-02T17:17:25Z</time></trkpt>
<trkpt lat="50.473117" lon="3.669212"><time>2026-05-02T17:27:25Z</time></trkpt>
<trkpt lat="50.474930" lon="3.669704"><time>2026-05-02T17:37:25Z</time></trkpt>
<trkpt lat="50.475226" lon="3.670941"><time>2026-05-02T17:47:25Z</time></trkpt>
<trkpt lat="50.476305" lon="3.670326"><time>2026-05-02T17:57:25Z</time></trkpt>
</trkseg>
</trk>
<trk>
<name>hbnhc16</name>
<cmt>v</cmt>
<desc>Harchies Chemin n°16 </desc>
<link href="https://chemins.be/harchies/chemin/16"/><trkseg>
<trkpt lat="50.466842" lon="3.684701"><time>2026-05-02T17:17:25Z</time></trkpt>
<trkpt lat="50.465911" lon="3.683884"><time>2026-05-02T17:27:25Z</time></trkpt>
</trkseg>
</trk>
<trk>
<name>hbnhc17</name>
<cmt>v</cmt>
<desc>Harchies Chemin n°17 Rue du Rivage</desc>
<link href="https://chemins.be/harchies/chemin/17"/><trkseg>
<trkpt lat="50.475601" lon="3.691026"><time>2026-05-02T17:17:25Z</time></trkpt>
<trkpt lat="50.475143" lon="3.691520"><time>2026-05-02T17:27:25Z</time></trkpt>
</trkseg>
</trk>
<trk>
<name>hbnhc18</name>
<cmt>v</cmt>
<desc>Harchies Chemin n°18 </desc>
<link href="https://chemins.be/harchies/chemin/18"/><trkseg>
<trkpt lat="50.481371" lon="3.686430"><time>2026-05-02T17:17:25Z</time></trkpt>
<trkpt lat="50.481663" lon="3.686063"><time>2026-05-02T17:27:25Z</time></trkpt>
<trkpt lat="50.483262" lon="3.685123"><time>2026-05-02T17:37:25Z</time></trkpt>
<trkpt lat="50.484780" lon="3.683398"><time>2026-05-02T17:47:25Z</time></trkpt>
<trkpt lat="50.486036" lon="3.682385"><time>2026-05-02T17:57:25Z</time></trkpt>
<trkpt lat="50.486402" lon="3.682282"><time>2026-05-02T18:07:25Z</time></trkpt>
</trkseg>
</trk>
<trk>
<name>hbnhc19</name>
<cmt>v</cmt>
<desc>Harchies Chemin n°19 </desc>
<link href="https://chemins.be/harchies/chemin/19"/><trkseg>
<trkpt lat="50.481293" lon="3.686883"><time>2026-05-02T17:17:25Z</time></trkpt>
<trkpt lat="50.481361" lon="3.686428"><time>2026-05-02T17:27:25Z</time></trkpt>
<trkpt lat="50.481582" lon="3.684651"><time>2026-05-02T17:37:25Z</time></trkpt>
<trkpt lat="50.481618" lon="3.682677"><time>2026-05-02T17:47:25Z</time></trkpt>
</trkseg>
</trk>
<trk>
<name>hbnhc2</name>
<cmt>s</cmt>
<desc>Harchies Chemin n°2 Rue du Fayt</desc>
<link href="https://chemins.be/harchies/chemin/2"/><trkseg>
<trkpt lat="50.485599" lon="3.694287"><time>2026-05-02T17:17:25Z</time></trkpt>
<trkpt lat="50.485733" lon="3.694525"><time>2026-05-02T17:27:25Z</time></trkpt>
</trkseg></trk>
<trk>
<name>hbnhc2</name>
<cmt>d</cmt>
<desc>Harchies Chemin n°2 Rue du Fayt</desc>
<link href="https://chemins.be/harchies/chemin/2"/><trkseg>
<trkpt lat="50.485733" lon="3.694525"><time>2026-05-02T17:27:25Z</time></trkpt>
<trkpt lat="50.485937" lon="3.694914"><time>2026-05-02T17:37:25Z</time></trkpt>
</trkseg></trk>
<trk>
<name>hbnhc2</name>
<cmt>q</cmt>
<desc>Harchies Chemin n°2 Rue du Fayt</desc>
<link href="https://chemins.be/harchies/chemin/2"/><trkseg>
<trkpt lat="50.485937" lon="3.694914"><time>2026-05-02T17:37:25Z</time></trkpt>
<trkpt lat="50.486268" lon="3.695548"><time>2026-05-02T17:47:25Z</time></trkpt>
<trkpt lat="50.486778" lon="3.695755"><time>2026-05-02T17:57:25Z</time></trkpt>
<trkpt lat="50.487475" lon="3.695601"><time>2026-05-02T18:07:25Z</time></trkpt>
</trkseg></trk>
<trk>
<name>hbnhc2</name>
<cmt>v</cmt>
<desc>Harchies Chemin n°2 Rue du Fayt</desc>
<link href="https://chemins.be/harchies/chemin/2"/><trkseg>
<trkpt lat="50.487475" lon="3.695601"><time>2026-05-02T18:07:25Z</time></trkpt>
<trkpt lat="50.488338" lon="3.695410"><time>2026-05-02T18:17:25Z</time></trkpt>
<trkpt lat="50.490022" lon="3.693936"><time>2026-05-02T18:27:25Z</time></trkpt>
<trkpt lat="50.490209" lon="3.693507"><time>2026-05-02T18:37:25Z</time></trkpt>
<trkpt lat="50.490806" lon="3.692590"><time>2026-05-02T18:47:25Z</time></trkpt>
</trkseg></trk>
<trk>
<name>hbnhc2</name>
<cmt>s</cmt>
<desc>Harchies Chemin n°2 Rue du Fayt</desc>
<link href="https://chemins.be/harchies/chemin/2"/><trkseg>
<trkpt lat="50.490806" lon="3.692590"><time>2026-05-02T18:47:25Z</time></trkpt>
<trkpt lat="50.491442" lon="3.691612"><time>2026-05-02T18:57:25Z</time></trkpt>
<trkpt lat="50.492102" lon="3.691133"><time>2026-05-02T19:07:25Z</time></trkpt>
<trkpt lat="50.492484" lon="3.691277"><time>2026-05-02T19:17:25Z</time></trkpt>
</trkseg></trk>
<trk>
<name>hbnhc2</name>
<cmt>r</cmt>
<desc>Harchies Chemin n°2 Rue du Fayt</desc>
<link href="https://chemins.be/harchies/chemin/2"/><trkseg>
<trkpt lat="50.492484" lon="3.691277"><time>2026-05-02T19:17:25Z</time></trkpt>
<trkpt lat="50.493344" lon="3.691390"><time>2026-05-02T19:27:25Z</time></trkpt>
</trkseg>
</trk>
<trk>
<name>hbnhc20</name>
<cmt>q</cmt>
<desc>Harchies Chemin n°20 </desc>
<link href="https://chemins.be/harchies/chemin/20"/><trkseg>
<trkpt lat="50.481607" lon="3.684643"><time>2026-05-02T17:17:25Z</time></trkpt>
<trkpt lat="50.482901" lon="3.682360"><time>2026-05-02T17:27:25Z</time></trkpt>
<trkpt lat="50.485528" lon="3.678789"><time>2026-05-02T17:37:25Z</time></trkpt>
<trkpt lat="50.487090" lon="3.677278"><time>2026-05-02T17:47:25Z</time></trkpt>
</trkseg>
</trk>
<trk>
<name>hbnhc21</name>
<cmt>v</cmt>
<desc>Harchies Chemin n°21 </desc>
<link href="https://chemins.be/harchies/chemin/21"/><trkseg>
<trkpt lat="50.480108" lon="3.697924"><time>2026-05-02T17:17:25Z</time></trkpt>
<trkpt lat="50.479947" lon="3.699737"><time>2026-05-02T17:27:25Z</time></trkpt>
<trkpt lat="50.480252" lon="3.701421"><time>2026-05-02T17:37:25Z</time></trkpt>
</trkseg></trk>
<trk>
<name>hbnhc21</name>
<cmt>s</cmt>
<desc>Harchies Chemin n°21 </desc>
<link href="https://chemins.be/harchies/chemin/21"/><trkseg>
<trkpt lat="50.480252" lon="3.701421"><time>2026-05-02T17:37:25Z</time></trkpt>
<trkpt lat="50.480019" lon="3.702661"><time>2026-05-02T17:47:25Z</time></trkpt>
<trkpt lat="50.480429" lon="3.705418"><time>2026-05-02T17:57:25Z</time></trkpt>
</trkseg></trk>
<trk>
<name>hbnhc21</name>
<cmt>v</cmt>
<desc>Harchies Chemin n°21 </desc>
<link href="https://chemins.be/harchies/chemin/21"/><trkseg>
<trkpt lat="50.480429" lon="3.705418"><time>2026-05-02T17:57:25Z</time></trkpt>
<trkpt lat="50.480872" lon="3.709924"><time>2026-05-02T18:07:25Z</time></trkpt>
</trkseg></trk>
<trk>
<name>hbnhc21</name>
<cmt>d</cmt>
<desc>Harchies Chemin n°21 </desc>
<link href="https://chemins.be/harchies/chemin/21"/><trkseg>
<trkpt lat="50.480872" lon="3.709924"><time>2026-05-02T18:07:25Z</time></trkpt>
<trkpt lat="50.481128" lon="3.711756"><time>2026-05-02T18:17:25Z</time></trkpt>
</trkseg></trk>
<trk>
<name>hbnhc21</name>
<cmt>s</cmt>
<desc>Harchies Chemin n°21 </desc>
<link href="https://chemins.be/harchies/chemin/21"/><trkseg>
<trkpt lat="50.481128" lon="3.711756"><time>2026-05-02T18:17:25Z</time></trkpt>
<trkpt lat="50.481248" lon="3.712617"><time>2026-05-02T18:27:25Z</time></trkpt>
</trkseg>
</trk>
<trk>
<name>hbnhc22</name>
<cmt>v</cmt>
<desc>Harchies Chemin n°22 </desc>
<link href="https://chemins.be/harchies/chemin/22"/><trkseg>
<trkpt lat="50.482557" lon="3.679433"><time>2026-05-02T17:17:25Z</time></trkpt>
<trkpt lat="50.484075" lon="3.673150"><time>2026-05-02T17:27:25Z</time></trkpt>
<trkpt lat="50.483852" lon="3.671654"><time>2026-05-02T17:37:25Z</time></trkpt>
<trkpt lat="50.483322" lon="3.669603"><time>2026-05-02T17:47:25Z</time></trkpt>
</trkseg>
</trk>
<trk>
<name>hbnhc23</name>
<cmt>v</cmt>
<desc>Harchies Chemin n°23 Chemin du Bois / Chemin du Grippet - Chemin du Bois</desc>
<link href="https://chemins.be/harchies/chemin/23"/><trkseg>
<trkpt lat="50.494453" lon="3.717833"><time>2026-05-02T17:17:25Z</time></trkpt>
<trkpt lat="50.492489" lon="3.718720"><time>2026-05-02T17:27:25Z</time></trkpt>
<trkpt lat="50.492373" lon="3.718848"><time>2026-05-02T17:37:25Z</time></trkpt>
<trkpt lat="50.492266" lon="3.718935"><time>2026-05-02T17:47:25Z</time></trkpt>
<trkpt lat="50.492149" lon="3.718936"><time>2026-05-02T17:57:25Z</time></trkpt>
<trkpt lat="50.492032" lon="3.718895"><time>2026-05-02T18:07:25Z</time></trkpt>
<trkpt lat="50.491941" lon="3.718812"><time>2026-05-02T18:17:25Z</time></trkpt>
<trkpt lat="50.486816" lon="3.718629"><time>2026-05-02T18:27:25Z</time></trkpt>
</trkseg>
</trk>
<trk>
<name>hbnhc24</name>
<cmt>v</cmt>
<desc>Harchies Chemin n°24 Rue Baille du Renard</desc>
<link href="https://chemins.be/harchies/chemin/24"/><trkseg>
<trkpt lat="50.474846" lon="3.684532"><time>2026-05-02T17:17:25Z</time></trkpt>
<trkpt lat="50.474719" lon="3.684628"><time>2026-05-02T17:27:25Z</time></trkpt>
<trkpt lat="50.474103" lon="3.685164"><time>2026-05-02T17:37:25Z</time></trkpt>
<trkpt lat="50.473225" lon="3.685956"><time>2026-05-02T17:47:25Z</time></trkpt>
<trkpt lat="50.473037" lon="3.686655"><time>2026-05-02T17:57:25Z</time></trkpt>
</trkseg></trk>
<trk>
<name>hbnhc24</name>
<cmt>r</cmt>
<desc>Harchies Chemin n°24 Rue Baille du Renard</desc>
<link href="https://chemins.be/harchies/chemin/24"/><trkseg>
<trkpt lat="50.473037" lon="3.686655"><time>2026-05-02T17:57:25Z</time></trkpt>
<trkpt lat="50.472553" lon="3.689033"><time>2026-05-02T18:07:25Z</time></trkpt>
</trkseg>
</trk>
<trk>
<name>hbnhc25</name>
<cmt>d</cmt>
<desc>Harchies Chemin n°25 </desc>
<link href="https://chemins.be/harchies/chemin/25"/><trkseg>
<trkpt lat="50.484491" lon="3.707017"><time>2026-05-02T17:17:25Z</time></trkpt>
<trkpt lat="50.484556" lon="3.707461"><time>2026-05-02T17:27:25Z</time></trkpt>
<trkpt lat="50.486044" lon="3.708454"><time>2026-05-02T17:37:25Z</time></trkpt>
</trkseg></trk>
<trk>
<name>hbnhc25</name>
<cmt>s</cmt>
<desc>Harchies Chemin n°25 </desc>
<link href="https://chemins.be/harchies/chemin/25"/><trkseg>
<trkpt lat="50.486044" lon="3.708454"><time>2026-05-02T17:37:25Z</time></trkpt>
<trkpt lat="50.486461" lon="3.708898"><time>2026-05-02T17:47:25Z</time></trkpt>
</trkseg></trk>
<trk>
<name>hbnhc25</name>
<cmt>d</cmt>
<desc>Harchies Chemin n°25 </desc>
<link href="https://chemins.be/harchies/chemin/25"/><trkseg>
<trkpt lat="50.486461" lon="3.708898"><time>2026-05-02T17:47:25Z</time></trkpt>
<trkpt lat="50.488057" lon="3.710594"><time>2026-05-02T17:57:25Z</time></trkpt>
</trkseg>
</trk>
<trk>
<name>hbnhc26</name>
<cmt>q</cmt>
<desc>Harchies Chemin n°26 </desc>
<link href="https://chemins.be/harchies/chemin/26"/><trkseg>
<trkpt lat="50.459809" lon="3.697157"><time>2026-05-02T17:17:25Z</time></trkpt>
<trkpt lat="50.460291" lon="3.696078"><time>2026-05-02T17:27:25Z</time></trkpt>
</trkseg>
</trk>
<trk>
<name>hbnhc27</name>
<cmt>v</cmt>
<desc>Harchies Chemin n°27 </desc>
<link href="https://chemins.be/harchies/chemin/27"/><trkseg>
<trkpt lat="50.493304" lon="3.694741"><time>2026-05-02T17:17:25Z</time></trkpt>
<trkpt lat="50.492556" lon="3.694312"><time>2026-05-02T17:27:25Z</time></trkpt>
<trkpt lat="50.491076" lon="3.693676"><time>2026-05-02T17:37:25Z</time></trkpt>
</trkseg></trk>
<trk>
<name>hbnhc27</name>
<cmt>s</cmt>
<desc>Harchies Chemin n°27 </desc>
<link href="https://chemins.be/harchies/chemin/27"/><trkseg>
<trkpt lat="50.491076" lon="3.693676"><time>2026-05-02T17:37:25Z</time></trkpt>
<trkpt lat="50.490191" lon="3.693473"><time>2026-05-02T17:47:25Z</time></trkpt>
</trkseg></trk>
<trk>
<name>hbnhc27</name>
<cmt>q</cmt>
<desc>Harchies Chemin n°27 </desc>
<link href="https://chemins.be/harchies/chemin/27"/><trkseg>
<trkpt lat="50.490191" lon="3.693473"><time>2026-05-02T17:47:25Z</time></trkpt>
<trkpt lat="50.487227" lon="3.692792"><time>2026-05-02T17:57:25Z</time></trkpt>
<trkpt lat="50.485097" lon="3.692947"><time>2026-05-02T18:07:25Z</time></trkpt>
<trkpt lat="50.484682" lon="3.693170"><time>2026-05-02T18:17:25Z</time></trkpt>
</trkseg>
</trk>
<trk>
<name>hbnhc3</name>
<cmt>v</cmt>
<desc>Harchies Chemin n°3 Chemin Royal</desc>
<link href="https://chemins.be/harchies/chemin/3"/><trkseg>
<trkpt lat="50.492284" lon="3.679703"><time>2026-05-02T17:17:25Z</time></trkpt>
<trkpt lat="50.491910" lon="3.679667"><time>2026-05-02T17:27:25Z</time></trkpt>
</trkseg></trk>
<trk>
<name>hbnhc3</name>
<cmt>r</cmt>
<desc>Harchies Chemin n°3 Chemin Royal</desc>
<link href="https://chemins.be/harchies/chemin/3"/><trkseg>
<trkpt lat="50.491910" lon="3.679667"><time>2026-05-02T17:27:25Z</time></trkpt>
<trkpt lat="50.491628" lon="3.679109"><time>2026-05-02T17:37:25Z</time></trkpt>
<trkpt lat="50.490864" lon="3.679152"><time>2026-05-02T17:47:25Z</time></trkpt>
</trkseg></trk>
<trk>
<name>hbnhc3</name>
<cmt>v</cmt>
<desc>Harchies Chemin n°3 Chemin Royal</desc>
<link href="https://chemins.be/harchies/chemin/3"/><trkseg>
<trkpt lat="50.490864" lon="3.679152"><time>2026-05-02T17:47:25Z</time></trkpt>
<trkpt lat="50.489649" lon="3.679982"><time>2026-05-02T17:57:25Z</time></trkpt>
<trkpt lat="50.488989" lon="3.680810"><time>2026-05-02T18:07:25Z</time></trkpt>
<trkpt lat="50.488402" lon="3.680956"><time>2026-05-02T18:17:25Z</time></trkpt>
</trkseg></trk>
<trk>
<name>hbnhc3</name>
<cmt>s</cmt>
<desc>Harchies Chemin n°3 Chemin Royal</desc>
<link href="https://chemins.be/harchies/chemin/3"/><trkseg>
<trkpt lat="50.488402" lon="3.680956"><time>2026-05-02T18:17:25Z</time></trkpt>
<trkpt lat="50.487839" lon="3.681242"><time>2026-05-02T18:27:25Z</time></trkpt>
</trkseg>
</trk>
<trk>
<name>hbnhc30</name>
<cmt>q</cmt>
<desc>Harchies Sentier n°30 </desc>
<link href="https://chemins.be/harchies/sentier/30"/><trkseg>
<trkpt lat="50.470845" lon="3.695326"><time>2026-05-02T17:17:25Z</time></trkpt>
<trkpt lat="50.470075" lon="3.695397"><time>2026-05-02T17:27:25Z</time></trkpt>
<trkpt lat="50.469452" lon="3.695948"><time>2026-05-02T17:37:25Z</time></trkpt>
</trkseg>
</trk>
<trk>
<name>hbnhc31</name>
<cmt>q</cmt>
<desc>Harchies Chemin n°31 </desc>
<link href="https://chemins.be/harchies/chemin/31"/><trkseg>
<trkpt lat="50.470093" lon="3.695347"><time>2026-05-02T17:17:25Z</time></trkpt>
<trkpt lat="50.468541" lon="3.694303"><time>2026-05-02T17:27:25Z</time></trkpt>
<trkpt lat="50.467066" lon="3.693902"><time>2026-05-02T17:37:25Z</time></trkpt>
<trkpt lat="50.466734" lon="3.693795"><time>2026-05-02T17:47:25Z</time></trkpt>
</trkseg>
</trk>
<trk>
<name>hbnhc32</name>
<cmt>q</cmt>
<desc>Harchies Sentier n°32 </desc>
<link href="https://chemins.be/harchies/sentier/32"/><trkseg>
<trkpt lat="50.474730" lon="3.684009"><time>2026-05-02T17:17:25Z</time></trkpt>
<trkpt lat="50.472594" lon="3.680723"><time>2026-05-02T17:27:25Z</time></trkpt>
</trkseg>
</trk>
<trk>
<name>hbnhc34</name>
<cmt>v</cmt>
<desc>Harchies Chemin n°34 </desc>
<link href="https://chemins.be/harchies/chemin/34"/><trkseg>
<trkpt lat="50.473635" lon="3.697953"><time>2026-05-02T17:17:25Z</time></trkpt>
<trkpt lat="50.473883" lon="3.699609"><time>2026-05-02T17:27:25Z</time></trkpt>
<trkpt lat="50.473878" lon="3.700193"><time>2026-05-02T17:37:25Z</time></trkpt>
</trkseg>
</trk>
<trk>
<name>hbnhc36</name>
<cmt>v</cmt>
<desc>Harchies Sentier n°36 Coron du Charbonnage</desc>
<link href="https://chemins.be/harchies/sentier/36"/><trkseg>
<trkpt lat="50.479040" lon="3.690361"><time>2026-05-02T17:17:25Z</time></trkpt>
<trkpt lat="50.478453" lon="3.689306"><time>2026-05-02T17:27:25Z</time></trkpt>
</trkseg></trk>
<trk>
<name>hbnhc36</name>
<cmt>q</cmt>
<desc>Harchies Sentier n°36 Coron du Charbonnage</desc>
<link href="https://chemins.be/harchies/sentier/36"/><trkseg>
<trkpt lat="50.478453" lon="3.689306"><time>2026-05-02T17:27:25Z</time></trkpt>
<trkpt lat="50.477980" lon="3.688482"><time>2026-05-02T17:37:25Z</time></trkpt>
</trkseg></trk>
<trk>
<name>hbnhc36</name>
<cmt>v</cmt>
<desc>Harchies Sentier n°36 Coron du Charbonnage</desc>
<link href="https://chemins.be/harchies/sentier/36"/><trkseg>
<trkpt lat="50.477980" lon="3.688482"><time>2026-05-02T17:37:25Z</time></trkpt>
<trkpt lat="50.476964" lon="3.688055"><time>2026-05-02T17:47:25Z</time></trkpt>
</trkseg></trk>
<trk>
<name>hbnhc36</name>
<cmt>r</cmt>
<desc>Harchies Sentier n°36 Coron du Charbonnage</desc>
<link href="https://chemins.be/harchies/sentier/36"/><trkseg>
<trkpt lat="50.476964" lon="3.688055"><time>2026-05-02T17:47:25Z</time></trkpt>
<trkpt lat="50.476369" lon="3.687316"><time>2026-05-02T17:57:25Z</time></trkpt>
</trkseg></trk>
<trk>
<name>hbnhc36</name>
<cmt>q</cmt>
<desc>Harchies Sentier n°36 Coron du Charbonnage</desc>
<link href="https://chemins.be/harchies/sentier/36"/><trkseg>
<trkpt lat="50.476369" lon="3.687316"><time>2026-05-02T17:57:25Z</time></trkpt>
<trkpt lat="50.475626" lon="3.687179"><time>2026-05-02T18:07:25Z</time></trkpt>
<trkpt lat="50.473944" lon="3.688097"><time>2026-05-02T18:17:25Z</time></trkpt>
<trkpt lat="50.473528" lon="3.687849"><time>2026-05-02T18:27:25Z</time></trkpt>
<trkpt lat="50.472578" lon="3.688827"><time>2026-05-02T18:37:25Z</time></trkpt>
</trkseg>
</trk>
<trk>
<name>hbnhc37</name>
<cmt>v</cmt>
<desc>Harchies Sentier n°37 </desc>
<link href="https://chemins.be/harchies/sentier/37"/><trkseg>
<trkpt lat="50.477001" lon="3.689690"><time>2026-05-02T17:17:25Z</time></trkpt>
<trkpt lat="50.477203" lon="3.689432"><time>2026-05-02T17:27:25Z</time></trkpt>
<trkpt lat="50.477464" lon="3.688833"><time>2026-05-02T17:37:25Z</time></trkpt>
<trkpt lat="50.477986" lon="3.688490"><time>2026-05-02T17:47:25Z</time></trkpt>
<trkpt lat="50.479297" lon="3.687724"><time>2026-05-02T17:57:25Z</time></trkpt>
</trkseg></trk>
<trk>
<name>hbnhc37</name>
<cmt>q</cmt>
<desc>Harchies Sentier n°37 </desc>
<link href="https://chemins.be/harchies/sentier/37"/><trkseg>
<trkpt lat="50.479297" lon="3.687724"><time>2026-05-02T17:57:25Z</time></trkpt>
<trkpt lat="50.480662" lon="3.686514"><time>2026-05-02T18:07:25Z</time></trkpt>
<trkpt lat="50.481361" lon="3.686119"><time>2026-05-02T18:17:25Z</time></trkpt>
</trkseg>
</trk>
<trk>
<name>hbnhc38</name>
<cmt>q</cmt>
<desc>Harchies Sentier n°38 Coron du Charbonnage</desc>
<link href="https://chemins.be/harchies/sentier/38"/><trkseg>
<trkpt lat="50.477475" lon="3.688788"><time>2026-05-02T17:17:25Z</time></trkpt>
<trkpt lat="50.477774" lon="3.686789"><time>2026-05-02T17:27:25Z</time></trkpt>
</trkseg></trk>
<trk>
<name>hbnhc38</name>
<cmt>r</cmt>
<desc>Harchies Sentier n°38 Coron du Charbonnage</desc>
<link href="https://chemins.be/harchies/sentier/38"/><trkseg>
<trkpt lat="50.477774" lon="3.686789"><time>2026-05-02T17:27:25Z</time></trkpt>
<trkpt lat="50.478309" lon="3.684900"><time>2026-05-02T17:37:25Z</time></trkpt>
</trkseg></trk>
<trk>
<name>hbnhc38</name>
<cmt>v</cmt>
<desc>Harchies Sentier n°38 Coron du Charbonnage</desc>
<link href="https://chemins.be/harchies/sentier/38"/><trkseg>
<trkpt lat="50.478309" lon="3.684900"><time>2026-05-02T17:37:25Z</time></trkpt>
<trkpt lat="50.478428" lon="3.684352"><time>2026-05-02T17:47:25Z</time></trkpt>
<trkpt lat="50.478640" lon="3.683372"><time>2026-05-02T17:57:25Z</time></trkpt>
</trkseg>
</trk>
<trk>
<name>hbnhc39</name>
<cmt>q</cmt>
<desc>Harchies Sentier n°39 </desc>
<link href="https://chemins.be/harchies/sentier/39"/><trkseg>
<trkpt lat="50.483360" lon="3.676119"><time>2026-05-02T17:17:25Z</time></trkpt>
<trkpt lat="50.487851" lon="3.670605"><time>2026-05-02T17:27:25Z</time></trkpt>
<trkpt lat="50.488932" lon="3.668021"><time>2026-05-02T17:37:25Z</time></trkpt>
</trkseg></trk>
<trk>
<name>hbnhc39</name>
<cmt>s</cmt>
<desc>Harchies Sentier n°39 </desc>
<link href="https://chemins.be/harchies/sentier/39"/><trkseg>
<trkpt lat="50.488932" lon="3.668021"><time>2026-05-02T17:37:25Z</time></trkpt>
<trkpt lat="50.489267" lon="3.667222"><time>2026-05-02T17:47:25Z</time></trkpt>
</trkseg>
</trk>
<trk>
<name>hbnhc40</name>
<cmt>q</cmt>
<desc>Harchies Sentier n°40 </desc>
<link href="https://chemins.be/harchies/sentier/40"/><trkseg>
<trkpt lat="50.484288" lon="3.683966"><time>2026-05-02T17:17:25Z</time></trkpt>
<trkpt lat="50.485198" lon="3.684096"><time>2026-05-02T17:27:25Z</time></trkpt>
<trkpt lat="50.485735" lon="3.684173"><time>2026-05-02T17:37:25Z</time></trkpt>
<trkpt lat="50.487747" lon="3.684870"><time>2026-05-02T17:47:25Z</time></trkpt>
</trkseg></trk>
<trk>
<name>hbnhc40</name>
<cmt>s</cmt>
<desc>Harchies Sentier n°40 </desc>
<link href="https://chemins.be/harchies/sentier/40"/><trkseg>
<trkpt lat="50.487747" lon="3.684870"><time>2026-05-02T17:47:25Z</time></trkpt>
<trkpt lat="50.488809" lon="3.685237"><time>2026-05-02T17:57:25Z</time></trkpt>
</trkseg>
</trk>
<trk>
<name>hbnhc41</name>
<cmt>q</cmt>
<desc>Harchies Sentier n°41 </desc>
<link href="https://chemins.be/harchies/sentier/41"/><trkseg>
<trkpt lat="50.486254" lon="3.695589"><time>2026-05-02T17:17:25Z</time></trkpt>
<trkpt lat="50.485749" lon="3.698178"><time>2026-05-02T17:27:25Z</time></trkpt>
</trkseg>
</trk>
<trk>
<name>hbnhc42</name>
<cmt>q</cmt>
<desc>Harchies Sentier n°42 </desc>
<link href="https://chemins.be/harchies/sentier/42"/><trkseg>
<trkpt lat="50.479919" lon="3.692164"><time>2026-05-02T17:17:25Z</time></trkpt>
<trkpt lat="50.480168" lon="3.691966"><time>2026-05-02T17:27:25Z</time></trkpt>
<trkpt lat="50.480676" lon="3.691257"><time>2026-05-02T17:37:25Z</time></trkpt>
<trkpt lat="50.481462" lon="3.690160"><time>2026-05-02T17:47:25Z</time></trkpt>
<trkpt lat="50.483188" lon="3.688233"><time>2026-05-02T17:57:25Z</time></trkpt>
<trkpt lat="50.483729" lon="3.688027"><time>2026-05-02T18:07:25Z</time></trkpt>
</trkseg>
</trk>
<trk>
<name>hbnhc43</name>
<cmt>v</cmt>
<desc>Harchies Sentier n°43 Rue Saint Roch</desc>
<link href="https://chemins.be/harchies/sentier/43"/><trkseg>
<trkpt lat="50.483448" lon="3.692814"><time>2026-05-02T17:17:25Z</time></trkpt>
<trkpt lat="50.483417" lon="3.692562"><time>2026-05-02T17:27:25Z</time></trkpt>
<trkpt lat="50.483058" lon="3.692503"><time>2026-05-02T17:37:25Z</time></trkpt>
<trkpt lat="50.482123" lon="3.692149"><time>2026-05-02T17:47:25Z</time></trkpt>
<trkpt lat="50.481643" lon="3.691957"><time>2026-05-02T17:57:25Z</time></trkpt>
</trkseg></trk>
<trk>
<name>hbnhc43</name>
<cmt>r</cmt>
<desc>Harchies Sentier n°43 Rue Saint Roch</desc>
<link href="https://chemins.be/harchies/sentier/43"/><trkseg>
<trkpt lat="50.481643" lon="3.691957"><time>2026-05-02T17:57:25Z</time></trkpt>
<trkpt lat="50.481555" lon="3.691642"><time>2026-05-02T18:07:25Z</time></trkpt>
</trkseg></trk>
<trk>
<name>hbnhc43</name>
<cmt>q</cmt>
<desc>Harchies Sentier n°43 Rue Saint Roch</desc>
<link href="https://chemins.be/harchies/sentier/43"/><trkseg>
<trkpt lat="50.481555" lon="3.691642"><time>2026-05-02T18:07:25Z</time></trkpt>
<trkpt lat="50.480666" lon="3.691366"><time>2026-05-02T18:17:25Z</time></trkpt>
</trkseg>
</trk>
<trk>
<name>hbnhc44</name>
<cmt>v</cmt>
<desc>Harchies Sentier n°44 </desc>
<link href="https://chemins.be/harchies/sentier/44"/><trkseg>
<trkpt lat="50.479536" lon="3.689168"><time>2026-05-02T17:17:25Z</time></trkpt>
<trkpt lat="50.480698" lon="3.691124"><time>2026-05-02T17:27:25Z</time></trkpt>
<trkpt lat="50.480627" lon="3.691308"><time>2026-05-02T17:37:25Z</time></trkpt>
<trkpt lat="50.481591" lon="3.693148"><time>2026-05-02T17:47:25Z</time></trkpt>
</trkseg></trk>
<trk>
<name>hbnhc44</name>
<cmt>r</cmt>
<desc>Harchies Sentier n°44 </desc>
<link href="https://chemins.be/harchies/sentier/44"/><trkseg>
<trkpt lat="50.481591" lon="3.693148"><time>2026-05-02T17:47:25Z</time></trkpt>
<trkpt lat="50.481718" lon="3.693028"><time>2026-05-02T17:57:25Z</time></trkpt>
<trkpt lat="50.481861" lon="3.693289"><time>2026-05-02T18:07:25Z</time></trkpt>
</trkseg></trk>
<trk>
<name>hbnhc44</name>
<cmt>v</cmt>
<desc>Harchies Sentier n°44 </desc>
<link href="https://chemins.be/harchies/sentier/44"/><trkseg>
<trkpt lat="50.481861" lon="3.693289"><time>2026-05-02T18:07:25Z</time></trkpt>
<trkpt lat="50.482081" lon="3.694131"><time>2026-05-02T18:17:25Z</time></trkpt>
<trkpt lat="50.482081" lon="3.694468"><time>2026-05-02T18:27:25Z</time></trkpt>
<trkpt lat="50.482393" lon="3.695973"><time>2026-05-02T18:37:25Z</time></trkpt>
<trkpt lat="50.482377" lon="3.697261"><time>2026-05-02T18:47:25Z</time></trkpt>
<trkpt lat="50.483026" lon="3.697747"><time>2026-05-02T18:57:25Z</time></trkpt>
</trkseg></trk>
<trk>
<name>hbnhc44</name>
<cmt>s</cmt>
<desc>Harchies Sentier n°44 </desc>
<link href="https://chemins.be/harchies/sentier/44"/><trkseg>
<trkpt lat="50.483026" lon="3.697747"><time>2026-05-02T18:57:25Z</time></trkpt>
<trkpt lat="50.483994" lon="3.698727"><time>2026-05-02T19:07:25Z</time></trkpt>
<trkpt lat="50.486270" lon="3.700558"><time>2026-05-02T19:17:25Z</time></trkpt>
<trkpt lat="50.486643" lon="3.701903"><time>2026-05-02T19:27:25Z</time></trkpt>
</trkseg>
</trk>
<trk>
<name>hbnhc45</name>
<cmt>v</cmt>
<desc>Harchies Sentier n°45 </desc>
<link href="https://chemins.be/harchies/sentier/45"/><trkseg>
<trkpt lat="50.478248" lon="3.693764"><time>2026-05-02T17:17:25Z</time></trkpt>
<trkpt lat="50.478294" lon="3.694606"><time>2026-05-02T17:27:25Z</time></trkpt>
<trkpt lat="50.478346" lon="3.697138"><time>2026-05-02T17:37:25Z</time></trkpt>
</trkseg>
</trk>
<trk>
<name>hbnhc46</name>
<cmt>v</cmt>
<desc>Harchies Sentier n°46 </desc>
<link href="https://chemins.be/harchies/sentier/46"/><trkseg>
<trkpt lat="50.480179" lon="3.694636"><time>2026-05-02T17:17:25Z</time></trkpt>
<trkpt lat="50.479428" lon="3.695194"><time>2026-05-02T17:27:25Z</time></trkpt>
<trkpt lat="50.478909" lon="3.695013"><time>2026-05-02T17:37:25Z</time></trkpt>
<trkpt lat="50.478308" lon="3.694614"><time>2026-05-02T17:47:25Z</time></trkpt>
</trkseg></trk>
<trk>
<name>hbnhc46</name>
<cmt>q</cmt>
<desc>Harchies Sentier n°46 </desc>
<link href="https://chemins.be/harchies/sentier/46"/><trkseg>
<trkpt lat="50.478308" lon="3.694614"><time>2026-05-02T17:47:25Z</time></trkpt>
<trkpt lat="50.477726" lon="3.693859"><time>2026-05-02T17:57:25Z</time></trkpt>
</trkseg>
</trk>
<trk>
<name>hbnhc47</name>
<cmt>v</cmt>
<desc>Harchies Sentier n°47 </desc>
<link href="https://chemins.be/harchies/sentier/47"/><trkseg>
<trkpt lat="50.479654" lon="3.696223"><time>2026-05-02T17:17:25Z</time></trkpt>
<trkpt lat="50.478890" lon="3.695018"><time>2026-05-02T17:27:25Z</time></trkpt>
</trkseg>
</trk>
<trk>
<name>hbnhc48</name>
<cmt>q</cmt>
<desc>Harchies Sentier n°48 </desc>
<link href="https://chemins.be/harchies/sentier/48"/><trkseg>
<trkpt lat="50.477475" lon="3.697326"><time>2026-05-02T17:17:25Z</time></trkpt>
<trkpt lat="50.476385" lon="3.694382"><time>2026-05-02T17:27:25Z</time></trkpt>
<trkpt lat="50.476200" lon="3.694018"><time>2026-05-02T17:37:25Z</time></trkpt>
</trkseg>
</trk>
<trk>
<name>hbnhc49</name>
<cmt>v</cmt>
<desc>Harchies Sentier n°49 </desc>
<link href="https://chemins.be/harchies/sentier/49"/><trkseg>
<trkpt lat="50.475670" lon="3.691730"><time>2026-05-02T17:17:25Z</time></trkpt>
<trkpt lat="50.475831" lon="3.692104"><time>2026-05-02T17:27:25Z</time></trkpt>
<trkpt lat="50.476104" lon="3.693185"><time>2026-05-02T17:37:25Z</time></trkpt>
<trkpt lat="50.476178" lon="3.694000"><time>2026-05-02T17:47:25Z</time></trkpt>
</trkseg>
</trk>
<trk>
<name>hbnhc5</name>
<cmt>r</cmt>
<desc>Harchies Chemin n°5 Allée de Chasse / Rue des Sartis / Rue du Préau</desc>
<link href="https://chemins.be/harchies/chemin/5"/><trkseg>
<trkpt lat="50.462663" lon="3.671249"><time>2026-05-02T17:17:25Z</time></trkpt>
<trkpt lat="50.465397" lon="3.671733"><time>2026-05-02T17:27:25Z</time></trkpt>
<trkpt lat="50.465834" lon="3.672692"><time>2026-05-02T17:37:25Z</time></trkpt>
<trkpt lat="50.466271" lon="3.673164"><time>2026-05-02T17:47:25Z</time></trkpt>
</trkseg></trk>
<trk>
<name>hbnhc5</name>
<cmt>v</cmt>
<desc>Harchies Chemin n°5 Allée de Chasse / Rue des Sartis / Rue du Préau</desc>
<link href="https://chemins.be/harchies/chemin/5"/><trkseg>
<trkpt lat="50.466271" lon="3.673164"><time>2026-05-02T17:47:25Z</time></trkpt>
<trkpt lat="50.466568" lon="3.673422"><time>2026-05-02T17:57:25Z</time></trkpt>
<trkpt lat="50.467173" lon="3.673892"><time>2026-05-02T18:07:25Z</time></trkpt>
<trkpt lat="50.467634" lon="3.674182"><time>2026-05-02T18:17:25Z</time></trkpt>
<trkpt lat="50.466833" lon="3.684687"><time>2026-05-02T18:27:25Z</time></trkpt>
<trkpt lat="50.467079" lon="3.685240"><time>2026-05-02T18:37:25Z</time></trkpt>
<trkpt lat="50.467518" lon="3.685468"><time>2026-05-02T18:47:25Z</time></trkpt>
<trkpt lat="50.467754" lon="3.685774"><time>2026-05-02T18:57:25Z</time></trkpt>
<trkpt lat="50.468087" lon="3.686837"><time>2026-05-02T19:07:25Z</time></trkpt>
<trkpt lat="50.468255" lon="3.686751"><time>2026-05-02T19:17:25Z</time></trkpt>
<trkpt lat="50.468397" lon="3.686826"><time>2026-05-02T19:27:25Z</time></trkpt>
</trkseg></trk>
<trk>
<name>hbnhc5</name>
<cmt>d</cmt>
<desc>Harchies Chemin n°5 Allée de Chasse / Rue des Sartis / Rue du Préau</desc>
<link href="https://chemins.be/harchies/chemin/5"/><trkseg>
<trkpt lat="50.468397" lon="3.686826"><time>2026-05-02T19:27:25Z</time></trkpt>
<trkpt lat="50.469038" lon="3.686392"><time>2026-05-02T19:37:25Z</time></trkpt>
<trkpt lat="50.469333" lon="3.686606"><time>2026-05-02T19:47:25Z</time></trkpt>
</trkseg></trk>
<trk>
<name>hbnhc5</name>
<cmt>v</cmt>
<desc>Harchies Chemin n°5 Allée de Chasse / Rue des Sartis / Rue du Préau</desc>
<link href="https://chemins.be/harchies/chemin/5"/><trkseg>
<trkpt lat="50.469333" lon="3.686606"><time>2026-05-02T19:47:25Z</time></trkpt>
<trkpt lat="50.469437" lon="3.687113"><time>2026-05-02T19:57:25Z</time></trkpt>
<trkpt lat="50.469472" lon="3.688340"><time>2026-05-02T20:07:25Z</time></trkpt>
<trkpt lat="50.470366" lon="3.688737"><time>2026-05-02T20:17:25Z</time></trkpt>
</trkseg>
</trk>
<trk>
<name>hbnhc50</name>
<cmt>q</cmt>
<desc>Harchies Sentier n°50 </desc>
<link href="https://chemins.be/harchies/sentier/50"/><trkseg>
<trkpt lat="50.475459" lon="3.691198"><time>2026-05-02T17:17:25Z</time></trkpt>
<trkpt lat="50.475369" lon="3.692001"><time>2026-05-02T17:27:25Z</time></trkpt>
<trkpt lat="50.475519" lon="3.692932"><time>2026-05-02T17:37:25Z</time></trkpt>
<trkpt lat="50.475424" lon="3.693284"><time>2026-05-02T17:47:25Z</time></trkpt>
<trkpt lat="50.475397" lon="3.694378"><time>2026-05-02T17:57:25Z</time></trkpt>
<trkpt lat="50.475260" lon="3.694391"><time>2026-05-02T18:07:25Z</time></trkpt>
<trkpt lat="50.474883" lon="3.695262"><time>2026-05-02T18:17:25Z</time></trkpt>
<trkpt lat="50.473706" lon="3.697202"><time>2026-05-02T18:27:25Z</time></trkpt>
<trkpt lat="50.473741" lon="3.697962"><time>2026-05-02T18:37:25Z</time></trkpt>
</trkseg>
</trk>
<trk>
<name>hbnhc51</name>
<cmt>q</cmt>
<desc>Harchies Sentier n°51 </desc>
<link href="https://chemins.be/harchies/sentier/51"/><trkseg>
<trkpt lat="50.473577" lon="3.689710"><time>2026-05-02T17:17:25Z</time></trkpt>
<trkpt lat="50.473156" lon="3.691320"><time>2026-05-02T17:27:25Z</time></trkpt>
<trkpt lat="50.472212" lon="3.693536"><time>2026-05-02T17:37:25Z</time></trkpt>
<trkpt lat="50.472208" lon="3.695074"><time>2026-05-02T17:47:25Z</time></trkpt>
</trkseg>
</trk>
<trk>
<name>hbnhc52</name>
<cmt>q</cmt>
<desc>Harchies Sentier n°52 </desc>
<link href="https://chemins.be/harchies/sentier/52"/><trkseg>
<trkpt lat="50.479966" lon="3.699504"><time>2026-05-02T17:17:25Z</time></trkpt>
<trkpt lat="50.479492" lon="3.700278"><time>2026-05-02T17:27:25Z</time></trkpt>
<trkpt lat="50.478955" lon="3.700589"><time>2026-05-02T17:37:25Z</time></trkpt>
<trkpt lat="50.478685" lon="3.701339"><time>2026-05-02T17:47:25Z</time></trkpt>
<trkpt lat="50.475390" lon="3.707302"><time>2026-05-02T17:57:25Z</time></trkpt>
</trkseg></trk>
<trk>
<name>hbnhc52</name>
<cmt>v</cmt>
<desc>Harchies Sentier n°52 </desc>
<link href="https://chemins.be/harchies/sentier/52"/><trkseg>
<trkpt lat="50.475390" lon="3.707302"><time>2026-05-02T17:57:25Z</time></trkpt>
<trkpt lat="50.475048" lon="3.708041"><time>2026-05-02T18:07:25Z</time></trkpt>
</trkseg>
</trk>
<trk>
<name>hbnhc53</name>
<cmt>v</cmt>
<desc>Harchies Sentier n°53 </desc>
<link href="https://chemins.be/harchies/sentier/53"/><trkseg>
<trkpt lat="50.474656" lon="3.668041"><time>2026-05-02T17:17:25Z</time></trkpt>
<trkpt lat="50.474665" lon="3.667702"><time>2026-05-02T17:27:25Z</time></trkpt>
<trkpt lat="50.474788" lon="3.667419"><time>2026-05-02T17:37:25Z</time></trkpt>
<trkpt lat="50.474979" lon="3.667131"><time>2026-05-02T17:47:25Z</time></trkpt>
</trkseg></trk>
<trk>
<name>hbnhc53</name>
<cmt>d</cmt>
<desc>Harchies Sentier n°53 </desc>
<link href="https://chemins.be/harchies/sentier/53"/><trkseg>
<trkpt lat="50.474979" lon="3.667131"><time>2026-05-02T17:47:25Z</time></trkpt>
<trkpt lat="50.475238" lon="3.666663"><time>2026-05-02T17:57:25Z</time></trkpt>
</trkseg></trk>
<trk>
<name>hbnhc53</name>
<cmt>q</cmt>
<desc>Harchies Sentier n°53 </desc>
<link href="https://chemins.be/harchies/sentier/53"/><trkseg>
<trkpt lat="50.475238" lon="3.666663"><time>2026-05-02T17:57:25Z</time></trkpt>
<trkpt lat="50.474957" lon="3.666123"><time>2026-05-02T18:07:25Z</time></trkpt>
</trkseg></trk>
<trk>
<name>hbnhc53</name>
<cmt>s</cmt>
<desc>Harchies Sentier n°53 </desc>
<link href="https://chemins.be/harchies/sentier/53"/><trkseg>
<trkpt lat="50.474957" lon="3.666123"><time>2026-05-02T18:07:25Z</time></trkpt>
<trkpt lat="50.474632" lon="3.665496"><time>2026-05-02T18:17:25Z</time></trkpt>
<trkpt lat="50.474829" lon="3.665067"><time>2026-05-02T18:27:25Z</time></trkpt>
</trkseg>
</trk>
<trk>
<name>hbnhc54</name>
<cmt>v</cmt>
<desc>Harchies Sentier n°54 </desc>
<link href="https://chemins.be/harchies/sentier/54"/><trkseg>
<trkpt lat="50.480120" lon="3.698000"><time>2026-05-02T17:17:25Z</time></trkpt>
<trkpt lat="50.481520" lon="3.698994"><time>2026-05-02T17:27:25Z</time></trkpt>
<trkpt lat="50.481609" lon="3.699173"><time>2026-05-02T17:37:25Z</time></trkpt>
</trkseg></trk>
<trk>
<name>hbnhc54</name>
<cmt>q</cmt>
<desc>Harchies Sentier n°54 </desc>
<link href="https://chemins.be/harchies/sentier/54"/><trkseg>
<trkpt lat="50.481609" lon="3.699173"><time>2026-05-02T17:37:25Z</time></trkpt>
<trkpt lat="50.481707" lon="3.699522"><time>2026-05-02T17:47:25Z</time></trkpt>
</trkseg></trk>
<trk>
<name>hbnhc54</name>
<cmt>s</cmt>
<desc>Harchies Sentier n°54 </desc>
<link href="https://chemins.be/harchies/sentier/54"/><trkseg>
<trkpt lat="50.481707" lon="3.699522"><time>2026-05-02T17:47:25Z</time></trkpt>
<trkpt lat="50.481840" lon="3.700028"><time>2026-05-02T17:57:25Z</time></trkpt>
</trkseg></trk>
<trk>
<name>hbnhc54</name>
<cmt>q</cmt>
<desc>Harchies Sentier n°54 </desc>
<link href="https://chemins.be/harchies/sentier/54"/><trkseg>
<trkpt lat="50.481840" lon="3.700028"><time>2026-05-02T17:57:25Z</time></trkpt>
<trkpt lat="50.482218" lon="3.701165"><time>2026-05-02T18:07:25Z</time></trkpt>
<trkpt lat="50.483238" lon="3.702284"><time>2026-05-02T18:17:25Z</time></trkpt>
<trkpt lat="50.484166" lon="3.702753"><time>2026-05-02T18:27:25Z</time></trkpt>
</trkseg>
</trk>
<trk>
<name>hbnhc55</name>
<cmt>v</cmt>
<desc>Harchies Sentier n°55 </desc>
<link href="https://chemins.be/harchies/sentier/55"/><trkseg>
<trkpt lat="50.477145" lon="3.677407"><time>2026-05-02T17:17:25Z</time></trkpt>
<trkpt lat="50.476858" lon="3.676115"><time>2026-05-02T17:27:25Z</time></trkpt>
</trkseg>
</trk>
<trk>
<name>hbnhc56</name>
<cmt>q</cmt>
<desc>Harchies Sentier n°56 </desc>
<link href="https://chemins.be/harchies/sentier/56"/><trkseg>
<trkpt lat="50.469320" lon="3.698565"><time>2026-05-02T17:17:25Z</time></trkpt>
<trkpt lat="50.469429" lon="3.695951"><time>2026-05-02T17:27:25Z</time></trkpt>
</trkseg>
</trk>
<trk>
<name>hbnhc57</name>
<cmt>s</cmt>
<desc>Harchies Sentier n°57 </desc>
<link href="https://chemins.be/harchies/sentier/57"/><trkseg>
<trkpt lat="50.484013" lon="3.698727"><time>2026-05-02T17:17:25Z</time></trkpt>
<trkpt lat="50.485160" lon="3.698012"><time>2026-05-02T17:27:25Z</time></trkpt>
<trkpt lat="50.485325" lon="3.698094"><time>2026-05-02T17:37:25Z</time></trkpt>
</trkseg></trk>
<trk>
<name>hbnhc57</name>
<cmt>q</cmt>
<desc>Harchies Sentier n°57 </desc>
<link href="https://chemins.be/harchies/sentier/57"/><trkseg>
<trkpt lat="50.485325" lon="3.698094"><time>2026-05-02T17:37:25Z</time></trkpt>
<trkpt lat="50.486244" lon="3.698483"><time>2026-05-02T17:47:25Z</time></trkpt>
</trkseg></trk>
<trk>
<name>hbnhc57</name>
<cmt>s</cmt>
<desc>Harchies Sentier n°57 </desc>
<link href="https://chemins.be/harchies/sentier/57"/><trkseg>
<trkpt lat="50.486244" lon="3.698483"><time>2026-05-02T17:47:25Z</time></trkpt>
<trkpt lat="50.486671" lon="3.698664"><time>2026-05-02T17:57:25Z</time></trkpt>
</trkseg></trk>
<trk>
<name>hbnhc57</name>
<cmt>q</cmt>
<desc>Harchies Sentier n°57 </desc>
<link href="https://chemins.be/harchies/sentier/57"/><trkseg>
<trkpt lat="50.486671" lon="3.698664"><time>2026-05-02T17:57:25Z</time></trkpt>
<trkpt lat="50.488043" lon="3.699245"><time>2026-05-02T18:07:25Z</time></trkpt>
</trkseg></trk>
<trk>
<name>hbnhc57</name>
<cmt>s</cmt>
<desc>Harchies Sentier n°57 </desc>
<link href="https://chemins.be/harchies/sentier/57"/><trkseg>
<trkpt lat="50.488043" lon="3.699245"><time>2026-05-02T18:07:25Z</time></trkpt>
<trkpt lat="50.488372" lon="3.699385"><time>2026-05-02T18:17:25Z</time></trkpt>
</trkseg>
</trk>
<trk>
<name>hbnhc58</name>
<cmt>q</cmt>
<desc>Harchies Sentier n°58 </desc>
<link href="https://chemins.be/harchies/sentier/58"/><trkseg>
<trkpt lat="50.481686" lon="3.696966"><time>2026-05-02T17:17:25Z</time></trkpt>
<trkpt lat="50.482372" lon="3.697256"><time>2026-05-02T17:27:25Z</time></trkpt>
</trkseg>
</trk>
<trk>
<name>hbnhc59</name>
<cmt>v</cmt>
<desc>Harchies Sentier n°59 </desc>
<link href="https://chemins.be/harchies/sentier/59"/><trkseg>
<trkpt lat="50.475593" lon="3.677484"><time>2026-05-02T17:17:25Z</time></trkpt>
<trkpt lat="50.476901" lon="3.676055"><time>2026-05-02T17:27:25Z</time></trkpt>
</trkseg>
</trk>
<trk>
<name>hbnhc60</name>
<cmt>q</cmt>
<desc>Harchies Sentier n°60 </desc>
<link href="https://chemins.be/harchies/sentier/60"/><trkseg>
<trkpt lat="50.482400" lon="3.695974"><time>2026-05-02T17:17:25Z</time></trkpt>
<trkpt lat="50.483052" lon="3.696934"><time>2026-05-02T17:27:25Z</time></trkpt>
<trkpt lat="50.483234" lon="3.697398"><time>2026-05-02T17:37:25Z</time></trkpt>
</trkseg></trk>
<trk>
<name>hbnhc60</name>
<cmt>s</cmt>
<desc>Harchies Sentier n°60 </desc>
<link href="https://chemins.be/harchies/sentier/60"/><trkseg>
<trkpt lat="50.483234" lon="3.697398"><time>2026-05-02T17:37:25Z</time></trkpt>
<trkpt lat="50.483536" lon="3.698168"><time>2026-05-02T17:47:25Z</time></trkpt>
</trkseg>
</trk>
<trk>
<name>hbnhc62</name>
<cmt>q</cmt>
<desc>Harchies Sentier n°62 </desc>
<link href="https://chemins.be/harchies/sentier/62"/><trkseg>
<trkpt lat="50.480328" lon="3.704436"><time>2026-05-02T17:17:25Z</time></trkpt>
<trkpt lat="50.481912" lon="3.706475"><time>2026-05-02T17:27:25Z</time></trkpt>
<trkpt lat="50.483064" lon="3.706797"><time>2026-05-02T17:37:25Z</time></trkpt>
</trkseg></trk>
<trk>
<name>hbnhc62</name>
<cmt>s</cmt>
<desc>Harchies Sentier n°62 </desc>
<link href="https://chemins.be/harchies/sentier/62"/><trkseg>
<trkpt lat="50.483064" lon="3.706797"><time>2026-05-02T17:37:25Z</time></trkpt>
<trkpt lat="50.483685" lon="3.706961"><time>2026-05-02T17:47:25Z</time></trkpt>
</trkseg></trk>
<trk>
<name>hbnhc62</name>
<cmt>q</cmt>
<desc>Harchies Sentier n°62 </desc>
<link href="https://chemins.be/harchies/sentier/62"/><trkseg>
<trkpt lat="50.483685" lon="3.706961"><time>2026-05-02T17:47:25Z</time></trkpt>
<trkpt lat="50.484415" lon="3.707154"><time>2026-05-02T17:57:25Z</time></trkpt>
</trkseg>
</trk>
<trk>
<name>hbnhc63</name>
<cmt>v</cmt>
<desc>Harchies Sentier n°63 Coron du Charbonnage</desc>
<link href="https://chemins.be/harchies/sentier/63"/><trkseg>
<trkpt lat="50.475970" lon="3.686484"><time>2026-05-02T17:17:25Z</time></trkpt>
<trkpt lat="50.476281" lon="3.687134"><time>2026-05-02T17:27:25Z</time></trkpt>
</trkseg></trk>
<trk>
<name>hbnhc63</name>
<cmt>r</cmt>
<desc>Harchies Sentier n°63 Coron du Charbonnage</desc>
<link href="https://chemins.be/harchies/sentier/63"/><trkseg>
<trkpt lat="50.476281" lon="3.687134"><time>2026-05-02T17:27:25Z</time></trkpt>
<trkpt lat="50.476388" lon="3.687325"><time>2026-05-02T17:37:25Z</time></trkpt>
</trkseg>
</trk>
<trk>
<name>hbnhc64</name>
<cmt>q</cmt>
<desc>Harchies Sentier n°64 </desc>
<link href="https://chemins.be/harchies/sentier/64"/><trkseg>
<trkpt lat="50.474385" lon="3.681813"><time>2026-05-02T17:17:25Z</time></trkpt>
<trkpt lat="50.473935" lon="3.682632"><time>2026-05-02T17:27:25Z</time></trkpt>
<trkpt lat="50.473834" lon="3.683499"><time>2026-05-02T17:37:25Z</time></trkpt>
<trkpt lat="50.473328" lon="3.684211"><time>2026-05-02T17:47:25Z</time></trkpt>
<trkpt lat="50.473235" lon="3.685134"><time>2026-05-02T17:57:25Z</time></trkpt>
<trkpt lat="50.473265" lon="3.685922"><time>2026-05-02T18:07:25Z</time></trkpt>
</trkseg>
</trk>
<trk>
<name>hbnhc65</name>
<cmt>q</cmt>
<desc>Harchies Sentier n°65 </desc>
<link href="https://chemins.be/harchies/sentier/65"/><trkseg>
<trkpt lat="50.472794" lon="3.687853"><time>2026-05-02T17:17:25Z</time></trkpt>
<trkpt lat="50.472081" lon="3.685368"><time>2026-05-02T17:27:25Z</time></trkpt>
<trkpt lat="50.471655" lon="3.684162"><time>2026-05-02T17:37:25Z</time></trkpt>
</trkseg>
</trk>
<trk>
<name>hbnhc66</name>
<cmt>v</cmt>
<desc>Harchies Sentier n°66 </desc>
<link href="https://chemins.be/harchies/sentier/66"/><trkseg>
<trkpt lat="50.477470" lon="3.688821"><time>2026-05-02T17:17:25Z</time></trkpt>
<trkpt lat="50.477196" lon="3.688147"><time>2026-05-02T17:27:25Z</time></trkpt>
</trkseg>
</trk>
<trk>
<name>hbnhc67</name>
<cmt>d</cmt>
<desc>Harchies Chemin n°67 </desc>
<link href="https://chemins.be/harchies/chemin/67"/><trkseg>
<trkpt lat="50.470671" lon="3.688696"><time>2026-05-02T17:17:25Z</time></trkpt>
<trkpt lat="50.469726" lon="3.687840"><time>2026-05-02T17:27:25Z</time></trkpt>
<trkpt lat="50.469745" lon="3.687615"><time>2026-05-02T17:37:25Z</time></trkpt>
</trkseg></trk>
<trk>
<name>hbnhc67</name>
<cmt>q</cmt>
<desc>Harchies Chemin n°67 </desc>
<link href="https://chemins.be/harchies/chemin/67"/><trkseg>
<trkpt lat="50.469745" lon="3.687615"><time>2026-05-02T17:37:25Z</time></trkpt>
<trkpt lat="50.469808" lon="3.685969"><time>2026-05-02T17:47:25Z</time></trkpt>
</trkseg>
</trk>
<trk>
<name>hbnhc69</name>
<cmt>v</cmt>
<desc>Harchies Sentier n°69 Digue d'Harchies</desc>
<link href="https://chemins.be/harchies/sentier/69"/><trkseg>
<trkpt lat="50.465857" lon="3.683842"><time>2026-05-02T17:17:25Z</time></trkpt>
<trkpt lat="50.464962" lon="3.683010"><time>2026-05-02T17:27:25Z</time></trkpt>
<trkpt lat="50.462169" lon="3.680501"><time>2026-05-02T17:37:25Z</time></trkpt>
<trkpt lat="50.461667" lon="3.679878"><time>2026-05-02T17:47:25Z</time></trkpt>
<trkpt lat="50.460738" lon="3.679063"><time>2026-05-02T17:57:25Z</time></trkpt>
</trkseg>
</trk>
<trk>
<name>hbnhc70</name>
<cmt>q</cmt>
<desc>Harchies Sentier n°70 </desc>
<link href="https://chemins.be/harchies/sentier/70"/><trkseg>
<trkpt lat="50.467598" lon="3.675095"><time>2026-05-02T17:17:25Z</time></trkpt>
<trkpt lat="50.469438" lon="3.675710"><time>2026-05-02T17:27:25Z</time></trkpt>
<trkpt lat="50.469812" lon="3.676608"><time>2026-05-02T17:37:25Z</time></trkpt>
<trkpt lat="50.470482" lon="3.677881"><time>2026-05-02T17:47:25Z</time></trkpt>
<trkpt lat="50.470932" lon="3.678274"><time>2026-05-02T17:57:25Z</time></trkpt>
<trkpt lat="50.471242" lon="3.679204"><time>2026-05-02T18:07:25Z</time></trkpt>
<trkpt lat="50.472306" lon="3.680559"><time>2026-05-02T18:17:25Z</time></trkpt>
</trkseg>
</trk>
<trk>
<name>hbnhc72</name>
<cmt>q</cmt>
<desc>Harchies Sentier n°72 </desc>
<link href="https://chemins.be/harchies/sentier/72"/><trkseg>
<trkpt lat="50.485676" lon="3.692837"><time>2026-05-02T17:17:25Z</time></trkpt>
<trkpt lat="50.487396" lon="3.690778"><time>2026-05-02T17:27:25Z</time></trkpt>
</trkseg>
</trk>
<trk>
<name>hbnhc8</name>
<cmt>v</cmt>
<desc>Harchies Chemin n°8 </desc>
<link href="https://chemins.be/harchies/chemin/8"/><trkseg>
<trkpt lat="50.475946" lon="3.686501"><time>2026-05-02T17:17:25Z</time></trkpt>
<trkpt lat="50.474861" lon="3.684527"><time>2026-05-02T17:27:25Z</time></trkpt>
<trkpt lat="50.474689" lon="3.683866"><time>2026-05-02T17:37:25Z</time></trkpt>
<trkpt lat="50.474370" lon="3.681888"><time>2026-05-02T17:47:25Z</time></trkpt>
<trkpt lat="50.474831" lon="3.679278"><time>2026-05-02T17:57:25Z</time></trkpt>
<trkpt lat="50.475204" lon="3.678278"><time>2026-05-02T18:07:25Z</time></trkpt>
</trkseg></trk>
<trk>
<name>hbnhc8</name>
<cmt>q</cmt>
<desc>Harchies Chemin n°8 </desc>
<link href="https://chemins.be/harchies/chemin/8"/><trkseg>
<trkpt lat="50.475204" lon="3.678278"><time>2026-05-02T18:07:25Z</time></trkpt>
<trkpt lat="50.475597" lon="3.677523"><time>2026-05-02T18:17:25Z</time></trkpt>
</trkseg>
</trk>
<trk>
<name>hbnhci1</name>
<cmt>v</cmt>
<desc>Harchies Chemin n°i1 </desc>
<link href="https://chemins.be/harchies/chemin/i1"/><trkseg>
<trkpt lat="50.491869" lon="3.718771"><time>2026-05-02T17:17:25Z</time></trkpt>
<trkpt lat="50.491750" lon="3.716701"><time>2026-05-02T17:27:25Z</time></trkpt>
<trkpt lat="50.492192" lon="3.715454"><time>2026-05-02T17:37:25Z</time></trkpt>
</trkseg>
</trk>
<trk>
<name>hbnhci2</name>
<cmt>v</cmt>
<desc>Harchies Chemin n°i2 </desc>
<link href="https://chemins.be/harchies/chemin/i2"/><trkseg>
<trkpt lat="50.482552" lon="3.698316"><time>2026-05-02T17:17:25Z</time></trkpt>
<trkpt lat="50.482020" lon="3.699088"><time>2026-05-02T17:27:25Z</time></trkpt>
<trkpt lat="50.480258" lon="3.701425"><time>2026-05-02T17:37:25Z</time></trkpt>
<trkpt lat="50.477091" lon="3.705955"><time>2026-05-02T17:47:25Z</time></trkpt>
<trkpt lat="50.475466" lon="3.707371"><time>2026-05-02T17:57:25Z</time></trkpt>
<trkpt lat="50.470904" lon="3.702586"><time>2026-05-02T18:07:25Z</time></trkpt>
<trkpt lat="50.469989" lon="3.703530"><time>2026-05-02T18:17:25Z</time></trkpt>
<trkpt lat="50.468378" lon="3.702564"><time>2026-05-02T18:27:25Z</time></trkpt>
</trkseg>
</trk>
<trk>
<name>hbnhci3</name>
<cmt>v</cmt>
<desc>Harchies Sentier n°i3 Chemin des Maillettes</desc>
<link href="https://chemins.be/harchies/sentier/i3"/><trkseg>
<trkpt lat="50.459103" lon="3.684348"><time>2026-05-02T17:17:25Z</time></trkpt>
<trkpt lat="50.460248" lon="3.679970"><time>2026-05-02T17:27:25Z</time></trkpt>
<trkpt lat="50.460565" lon="3.679287"><time>2026-05-02T17:37:25Z</time></trkpt>
<trkpt lat="50.460797" lon="3.679113"><time>2026-05-02T17:47:25Z</time></trkpt>
<trkpt lat="50.460998" lon="3.678319"><time>2026-05-02T17:57:25Z</time></trkpt>
</trkseg>
</trk>
<trk>
<name>hbnhci4</name>
<cmt>v</cmt>
<desc>Harchies Sentier n°i4 </desc>
<link href="https://chemins.be/harchies/sentier/i4"/><trkseg>
<trkpt lat="50.479476" lon="3.693344"><time>2026-05-02T17:17:25Z</time></trkpt>
<trkpt lat="50.478889" lon="3.692575"><time>2026-05-02T17:27:25Z</time></trkpt>
</trkseg>
</trk>
<trk>
<name>hbnhci5</name>
<cmt>v</cmt>
<desc>Harchies Sentier n°i5 </desc>
<link href="https://chemins.be/harchies/sentier/i5"/><trkseg>
<trkpt lat="50.479722" lon="3.703049"><time>2026-05-02T17:17:25Z</time></trkpt>
<trkpt lat="50.479540" lon="3.703492"><time>2026-05-02T17:27:25Z</time></trkpt>
<trkpt lat="50.479595" lon="3.704172"><time>2026-05-02T17:37:25Z</time></trkpt>
<trkpt lat="50.480432" lon="3.705330"><time>2026-05-02T17:47:25Z</time></trkpt>
</trkseg>
</trk>
<trk>
<name>hbnhci6</name>
<cmt>v</cmt>
<desc>Harchies Chemin n°i6 </desc>
<link href="https://chemins.be/harchies/chemin/i6"/><trkseg>
<trkpt lat="50.468464" lon="3.686767"><time>2026-05-02T17:17:25Z</time></trkpt>
<trkpt lat="50.468685" lon="3.686306"><time>2026-05-02T17:27:25Z</time></trkpt>
<trkpt lat="50.468760" lon="3.685823"><time>2026-05-02T17:37:25Z</time></trkpt>
<trkpt lat="50.468701" lon="3.685644"><time>2026-05-02T17:47:25Z</time></trkpt>
<trkpt lat="50.468915" lon="3.685315"><time>2026-05-02T17:57:25Z</time></trkpt>
<trkpt lat="50.469065" lon="3.685390"><time>2026-05-02T18:07:25Z</time></trkpt>
<trkpt lat="50.469313" lon="3.686559"><time>2026-05-02T18:17:25Z</time></trkpt>
</trkseg>
</trk>
<trk>
<name>hbnhci7</name>
<cmt>v</cmt>
<desc>Harchies Chemin n°i7 Digue de Pommerœul</desc>
<link href="https://chemins.be/harchies/chemin/i7"/><trkseg>
<trkpt lat="50.467951" lon="3.686280"><time>2026-05-02T17:17:25Z</time></trkpt>
<trkpt lat="50.459358" lon="3.696286"><time>2026-05-02T17:27:25Z</time></trkpt>
</trkseg>
</trk>
<trk>
<name>hbnhci8</name>
<cmt>v</cmt>
<desc>Harchies Sentier n°i8 </desc>
<link href="https://chemins.be/harchies/sentier/i8"/><trkseg>
<trkpt lat="50.459351" lon="3.683291"><time>2026-05-02T17:17:25Z</time></trkpt>
<trkpt lat="50.458373" lon="3.682716"><time>2026-05-02T17:27:25Z</time></trkpt>
<trkpt lat="50.458204" lon="3.682724"><time>2026-05-02T17:37:25Z</time></trkpt>
<trkpt lat="50.457483" lon="3.682390"><time>2026-05-02T17:47:25Z</time></trkpt>
</trkseg>
</trk>
<trk>
<name>hbnhcp1</name>
<cmt>v</cmt>
<desc>Harchies Chemin particulier n°p1 Rue des Charbonniers</desc>
<link href="https://chemins.be/harchies/chemin/p1"/><trkseg>
<trkpt lat="50.492475" lon="3.719397"><time>2026-05-02T17:17:25Z</time></trkpt>
<trkpt lat="50.492373" lon="3.718778"><time>2026-05-02T17:27:25Z</time></trkpt>
</trkseg></trk>
<trk>
<name>hbnhcp1</name>
<cmt>q</cmt>
<desc>Harchies Chemin particulier n°p1 Rue des Charbonniers</desc>
<link href="https://chemins.be/harchies/chemin/p1"/><trkseg>
<trkpt lat="50.492373" lon="3.718778"><time>2026-05-02T17:27:25Z</time></trkpt>
<trkpt lat="50.492192" lon="3.715454"><time>2026-05-02T17:37:25Z</time></trkpt>
</trkseg></trk>
<trk>
<name>hbnhcp1</name>
<cmt>v</cmt>
<desc>Harchies Chemin particulier n°p1 Rue des Charbonniers</desc>
<link href="https://chemins.be/harchies/chemin/p1"/><trkseg>
<trkpt lat="50.492192" lon="3.715454"><time>2026-05-02T17:37:25Z</time></trkpt>
<trkpt lat="50.491658" lon="3.708471"><time>2026-05-02T17:47:25Z</time></trkpt>
</trkseg>
</trk>
<trk>
<name>hbnhcp2</name>
<cmt>v</cmt>
<desc>Harchies Chemin particulier n°p2 Chemin des Maillettes</desc>
<link href="https://chemins.be/harchies/chemin/p2"/><trkseg>
<trkpt lat="50.459124" lon="3.694897"><time>2026-05-02T17:17:25Z</time></trkpt>
<trkpt lat="50.459275" lon="3.692951"><time>2026-05-02T17:27:25Z</time></trkpt>
<trkpt lat="50.458299" lon="3.689078"><time>2026-05-02T17:37:25Z</time></trkpt>
<trkpt lat="50.459108" lon="3.684362"><time>2026-05-02T17:47:25Z</time></trkpt>
</trkseg>
</trk>
<trk>
<name>hbnhcp3</name>
<cmt>v</cmt>
<desc>Harchies Chemin particulier n°p3 Chemin du Bois</desc>
<link href="https://chemins.be/harchies/chemin/p3"/><trkseg>
<trkpt lat="50.486790" lon="3.718619"><time>2026-05-02T17:17:25Z</time></trkpt>
<trkpt lat="50.485719" lon="3.713357"><time>2026-05-02T17:27:25Z</time></trkpt>
</trkseg></trk>
<trk>
<name>hbnhcp3</name>
<cmt>d</cmt>
<desc>Harchies Chemin particulier n°p3 Chemin du Bois</desc>
<link href="https://chemins.be/harchies/chemin/p3"/><trkseg>
<trkpt lat="50.485719" lon="3.713357"><time>2026-05-02T17:27:25Z</time></trkpt>
<trkpt lat="50.485525" lon="3.712378"><time>2026-05-02T17:37:25Z</time></trkpt>
</trkseg></trk>
<trk>
<name>hbnhcp3</name>
<cmt>s</cmt>
<desc>Harchies Chemin particulier n°p3 Chemin du Bois</desc>
<link href="https://chemins.be/harchies/chemin/p3"/><trkseg>
<trkpt lat="50.485525" lon="3.712378"><time>2026-05-02T17:37:25Z</time></trkpt>
<trkpt lat="50.485266" lon="3.711074"><time>2026-05-02T17:47:25Z</time></trkpt>
</trkseg></trk>
<trk>
<name>hbnhcp3</name>
<cmt>d</cmt>
<desc>Harchies Chemin particulier n°p3 Chemin du Bois</desc>
<link href="https://chemins.be/harchies/chemin/p3"/><trkseg>
<trkpt lat="50.485266" lon="3.711074"><time>2026-05-02T17:47:25Z</time></trkpt>
<trkpt lat="50.484567" lon="3.707452"><time>2026-05-02T17:57:25Z</time></trkpt>
</trkseg>
</trk>
<trk>
<name>hbnhcp4</name>
<cmt>v</cmt>
<desc>Harchies Chemin particulier n°p4 </desc>
<link href="https://chemins.be/harchies/chemin/p4"/><trkseg>
<trkpt lat="50.490345" lon="3.669734"><time>2026-05-02T17:17:25Z</time></trkpt>
<trkpt lat="50.490604" lon="3.674111"><time>2026-05-02T17:27:25Z</time></trkpt>
<trkpt lat="50.490658" lon="3.675121"><time>2026-05-02T17:37:25Z</time></trkpt>
</trkseg></trk>
<trk>
<name>hbnhcp4</name>
<cmt>r</cmt>
<desc>Harchies Chemin particulier n°p4 </desc>
<link href="https://chemins.be/harchies/chemin/p4"/><trkseg>
<trkpt lat="50.490658" lon="3.675121"><time>2026-05-02T17:37:25Z</time></trkpt>
<trkpt lat="50.490869" lon="3.679004"><time>2026-05-02T17:47:25Z</time></trkpt>
<trkpt lat="50.490724" lon="3.681321"><time>2026-05-02T17:57:25Z</time></trkpt>
</trkseg></trk>
<trk>
<name>hbnhcp4</name>
<cmt>v</cmt>
<desc>Harchies Chemin particulier n°p4 </desc>
<link href="https://chemins.be/harchies/chemin/p4"/><trkseg>
<trkpt lat="50.490724" lon="3.681321"><time>2026-05-02T17:57:25Z</time></trkpt>
<trkpt lat="50.490438" lon="3.687394"><time>2026-05-02T18:07:25Z</time></trkpt>
</trkseg></trk>
<trk>
<name>hbnhcp4</name>
<cmt>s</cmt>
<desc>Harchies Chemin particulier n°p4 </desc>
<link href="https://chemins.be/harchies/chemin/p4"/><trkseg>
<trkpt lat="50.490438" lon="3.687394"><time>2026-05-02T18:07:25Z</time></trkpt>
<trkpt lat="50.490379" lon="3.688629"><time>2026-05-02T18:17:25Z</time></trkpt>
</trkseg></trk>
<trk>
<name>hbnhcp4</name>
<cmt>q</cmt>
<desc>Harchies Chemin particulier n°p4 </desc>
<link href="https://chemins.be/harchies/chemin/p4"/><trkseg>
<trkpt lat="50.490379" lon="3.688629"><time>2026-05-02T18:17:25Z</time></trkpt>
<trkpt lat="50.490143" lon="3.693642"><time>2026-05-02T18:27:25Z</time></trkpt>
</trkseg></trk>
<trk>
<name>hbnhcp4</name>
<cmt>s</cmt>
<desc>Harchies Chemin particulier n°p4 </desc>
<link href="https://chemins.be/harchies/chemin/p4"/><trkseg>
<trkpt lat="50.490143" lon="3.693642"><time>2026-05-02T18:27:25Z</time></trkpt>
<trkpt lat="50.490235" lon="3.694869"><time>2026-05-02T18:37:25Z</time></trkpt>
</trkseg>
</trk>
<trk>
<name>hbnhcp5</name>
<cmt>v</cmt>
<desc>Harchies Chemin particulier n°p5 </desc>
<link href="https://chemins.be/harchies/chemin/p5"/><trkseg>
<trkpt lat="50.476212" lon="3.670136"><time>2026-05-02T17:17:25Z</time></trkpt>
<trkpt lat="50.476765" lon="3.669321"><time>2026-05-02T17:27:25Z</time></trkpt>
</trkseg>
</trk>
</gpx>